This demonstration page uses our WeatherBlox Daily Observations layout. Learn more.

Left ArrowRight Arrow

Hourly Observations for July 7, 2020

Temp ( °F °C ) Dew Point ( °F °C ) Humidity (%) Winds ( mph kmh ) Pressure ( in mb ) Visibility ( mi km ) Precip ( " mm )
12:53 am 00:53 Clear 71 21.7 63 17.2 76 76 E 3 6 29.97 1015 10 16 0.00 0.00
1:53 am 01:53 Clear 71 21.7 62 16.7 73 73 SSW 5 7 29.96 1015 10 16 0.00 0.00
2:53 am 02:53 Clear 69 20.6 63 17.2 81 81 SE 5 7 29.95 1014 10 16 0.00 0.00
3:53 am 03:53 Clear 72 22.2 68 20 87 87 S 9 15 29.92 1013 7 11 0.00 0.00
4:53 am 04:53 Clear 71 21.7 68 20 90 90 S 7 11 29.92 1013 7 11 0.00 0.00
5:53 am 05:53 Clear 72 22.2 67 19.4 84 84 NE 10 17 30.01 1016 7 11 0.00 0.00
6:53 am 06:53 Sunny 70 21.1 66 18.9 87 87 ENE 7 11 30.02 1017 8 13 0.00 0.00
7:53 am 07:53 Partly Cloudy 72 22.2 63 17.2 73 73 E 8 13 30.01 1016 10 16 0.00 0.00
8:53 am 08:53 Sunny 76 24.4 63 17.2 64 64 ESE 12 19 30.00 1016 10 16 0.00 0.00
9:53 am 09:53 Sunny 80 26.7 66 18.9 62 62 ESE 9 15 29.99 1016 10 16 0.00 0.00
10:53 am 10:53 Sunny 83 28.3 67 19.4 59 59 SE 12 19 29.98 1015 10 16 0.00 0.00
11:53 am 11:53 Sunny 85 29.4 69 20.6 59 59 SSE 12 19 29.97 1015 10 16 0.00 0.00
12:53 pm 12:53 Sunny 88 31.1 69 20.6 54 54 S 13 20 29.95 1014 10 16 0.00 0.00
1:53 pm 13:53 Sunny 91 32.8 70 21.1 50 50 S 10 17 29.93 1013 10 16 0.00 0.00
2:53 pm 14:53 Partly Cloudy 90 32.2 69 20.6 50 50 S 13 20 29.90 1013 10 16 0.00 0.00
3:53 pm 15:53 Sunny 91 32.8 67 19.4 45 45 S 15 24 29.87 1012 9 14 0.00 0.00
4:53 pm 16:53 Sunny 92 33.3 68 20 46 46 S 13 20 29.85 1011 10 16 0.00 0.00
5:53 pm 17:53 Sunny 92 33.3 68 20 46 46 S 16 26 29.83 1010 10 16 0.00 0.00
6:53 pm 18:53 Sunny 91 32.8 67 19.4 45 45 S 15 24 29.82 1010 10 16 0.00 0.00
7:53 pm 19:53 Sunny 88 31.1 67 19.4 50 50 S 12 19 29.82 1010 10 16 0.00 0.00
8:53 pm 20:53 Sunny 84 28.9 67 19.4 57 57 S 8 13 29.83 1010 10 16 0.00 0.00
9:53 pm 21:53 Clear 82 27.8 68 20 63 63 SSE 10 17 29.83 1010 10 16 0.00 0.00
10:53 pm 22:53 Clear 80 26.7 67 19.4 64 64 SSE 9 15 29.84 1010 10 16 0.00 0.00
11:53 pm 23:53 Clear 78 25.6 66 18.9 67 67 S 8 13 29.85 1011 10 16 0.00 0.00

Powered by AerisWeather